Regional Weather Roundup
Issued by NWS Cleveland, OH

Home | Current Version | Previous Version | Graphics & Text | Print | Product List | Glossary On
Versions: 1 2 3 4 5 6 7 8 9 10 11 12 13 14 15 16 17 18 19 20 21 22 23 24 25 26 27 28 29 30 31 32 33 34 35 36 37 38 39 40 41 42 43 44 45 46 47 48 49 50
000
ASUS41 KCLE 210102
RWRCLE
OHIO REGIONAL WEATHER ROUNDUP
NATIONAL WEATHER SERVICE CLEVELAND, OH
900 PM EDT WED SEP 20 2017

NOTE: "FAIR" INDICATES FEW OR NO CLOUDS BELOW 12,000 FEET WITH NO
SIGNIFICANT WEATHER AND/OR OBSTRUCTIONS TO VISIBILITY.

OHZ001>008-015>018-024>027-034-035-043-044-210200-
   NORTHWEST OHIO

CITY           SKY/WX    TMP DP  RH WIND       PRES   REMARKS
DEFIANCE       CLEAR     71  68  90 SE3       29.98R
FINDLAY        CLEAR     74  65  73 SE6       29.99R
TOLEDO EXPRESS CLEAR     72  70  93 E3        29.99R
TOLEDO EXEC    CLEAR     72  67  84 E6        30.00R
LIMA           CLEAR     74  66  76 S5        30.01R
$$

OHZ009>014-019>023-028>033-038-089-210200-
   NORTHEAST OHIO

CITY           SKY/WX    TMP DP  RH WIND       PRES   REMARKS
CLE-HOPKINS    PTCLDY    76  62  62 N5        30.04R
CLE-LAKEFRONT  CLEAR     76  63  64 CALM      30.01R
CUY CO. ARPT   CLEAR     73  64  73 E5        30.04R
LORAIN-ELYRIA  CLEAR     68  61  78 CALM      30.03R
ASHTABULA      CLEAR     67  65  93 CALM      30.05R
AKRON-CANTON   PTCLDY    73  63  70 CALM      30.04R
WOOSTER        CLEAR     65  64  97 CALM      30.04R
MANSFIELD      CLEAR     72  66  81 CALM      30.04R
YOUNGSTOWN     PTCLDY    71  65  81 VRB7      30.04R
$$

OHZ042-051>053-060>062-070>072-077>081-210200-
  SOUTHWEST OHIO

CITY           SKY/WX    TMP DP  RH WIND       PRES   REMARKS
CINC-COVINGTON PTCLDY    74  69  85 CALM      30.02R
CINC-LUNKEN    CLEAR     71  70  96 CALM      30.01R
HAMILTON       CLEAR     69  68  96 CALM      30.01R
DAYTON         PTCLDY    75  66  73 S6        30.03R
WRIGHT-PAT AFB CLEAR     74  69  85 CALM      30.01R
DAYTON GENERAL CLEAR     74  66  76 CALM      30.01R
WILMINGTON     CLEAR     71  69  93 CALM      30.02S
$$

OHZ036-037-039>041-045>050-054>059-063>069-073>076-082>088-210200-
  CENTRAL AND SOUTHEAST OHIO

CITY           SKY/WX    TMP DP  RH WIND       PRES   REMARKS
COLUMBUS       MOCLDY    75  67  76 CALM      30.01R
OSU AIRPORT    PTCLDY    71  69  93 CALM      30.02R
BOLTON FIELD   PTCLDY    69  68  98 SW3       30.03R
RICKENBACK AFB NOT AVBL
NEWARK         CLEAR     70  68  93 CALM      30.02R FOG
MARION         CLEAR     72  64  76 S3        30.02R
LANCASTER      CLEAR     68  66  93 CALM      30.03R
ZANESVILLE     CLEAR     71  66  84 CALM      30.03R
NEW PHILLY     NOT AVBL
$$




USA.gov is the U.S. government's official web portal to all federal, state and local government web resources and services.